Location: Haulchin
(50.3172°N, 3.4360°E)
Time: 21:34:46
(UTC+00:00)

Cosmos 2333 Rocket - Pass Details

Date: 15 August 2024
Orbit: 838 x 863 km, 70.8° (Epoch: 09 September)

Event Time Altitude Azimuth Distance (km) Brightness Sun altitude
Exits shadow 02:02:57 - 276° (W) 2,555 4.4 -19.5°
Reaches altitude 10° 02:03:08 10° 277° (W) 2,504 4.4 -19.5°
Maximum altitude 02:07:22 21° 325° (NW) 1,874 4.2 -19.1°
Drops below altitude 10° 02:11:37 10° 12° (NNE) 2,515 5.7 -18.7°
Sets 02:14:46 0° 29° (NNE) 3,455 7.0 -18.4°
